Location: *
(57.8420°S, 159.8600°W)
Time: 11:54:45
(UTC+00:00)

Cosmos 1842 Rocket - Pass Details

Date: 18 May 2021
Orbit: 604 x 635 km, 82.5° (Epoch: 22 June)

Event Time Altitude Azimuth Distance (km) Brightness Sun altitude
Rises 03:58:25 0° 194° (SSW) 2,941 7.0 -11.7°
Reaches altitude 10° 04:00:40 10° 195° (SSW) 2,033 6.2 -12.0°
Maximum altitude 04:05:11 79° 280° (W) 656 3.8 -12.5°
Drops below altitude 10° 04:09:41 10° 6° (N) 2,026 6.3 -13.1°
Sets 04:11:55 0° 7° (N) 2,931 7.1 -13.4°
